Terug naar catalogus

FORMOSAT-7R/TRITON

ActiefWeerSSO
NORAD 58017·PAYLOAD·🇹🇼 Taiwan

Gelanceerd Oct 9, 2023 vanaf Guiana Space Centre

Loading…

Volgende Passages (komende 24 uur)

TLE

VersSource: Space-Track

Epoch: Sep 14, 2026, 22:50 UTC

1 58017U 23155B   26257.95196769  .00001058  00000-0  11181-3 0  9990
2 58017  97.8305 338.7046 0002365 115.2847 244.8616 14.91335261159607

Volg FORMOSAT-7R/TRITON in realtime met AllMySat

Download on the App Store